Location: Titusville
(28.6119°N, 80.8078°W)
Time: 20:24:26
(UTC-04:00)

Tiangong 2 - Visible Passes

Search period start: 19 October 2018 00:00
Search period end: 29 October 2018 00:00
Orbit: 384 x 393 km, 42.8° (Epoch: 19 October)

Date Brightness Start Highest point End Pass type
(mag) Time Alt. Az. Time Alt. Az. Time Alt. Az.
19 Oct 4.6 05:13:41 11° ENE 05:13:41 11° ENE 05:13:57 10° ENE visible
19 Oct 1.2 06:46:00 13° WNW 06:48:46 60° SW 06:51:54 10° SE visible
20 Oct 1.8 05:50:52 52° ENE 05:50:52 52° ENE 05:53:34 10° ESE visible
21 Oct 2.4 06:28:09 23° WSW 06:28:45 24° SW 06:31:25 10° SSE visible
22 Oct 4.0 05:33:10 13° SE 05:33:10 13° SE 05:33:37 10° SE visible
24 Oct 2.4 20:02:17 10° SSW 20:04:29 27° SSE 20:04:29 27° SSE visible
25 Oct 3.2 19:05:06 10° S 19:06:52 14° SE 19:08:37 10° ESE visible
25 Oct 3.7 20:40:22 10° WSW 20:41:39 21° W 20:41:39 21° W visible
26 Oct 1.0 19:41:52 10° SW 19:45:01 76° SE 19:46:23 31° ENE visible
27 Oct 3.1 20:20:53 10° W 20:23:18 24° NW 20:23:18 24° NW visible
28 Oct 2.0 19:21:59 10° WSW 19:25:01 44° NNW 19:27:50 11° NE visible
